{"data":{"norad_id":53562,"epoch":"2026-09-20T05:52:26.719680Z","epoch_age_seconds":101066,"freshness":"FRESH","line1":"1 53562U 22101AM  26263.24475370  .00001074  00000+0  42941-4 0  9993","line2":"2 53562  53.1570 244.8319 0001312  90.3926 269.7227 15.34393589226691","mean_motion":15.34393589,"eccentricity":0.0001312,"inclination_deg":53.157,"raan_deg":244.8319,"arg_perigee_deg":90.3926,"mean_anomaly_deg":269.7227,"bstar":4.2941e-5,"rev_number":22669,"period_min":93.848150195836,"perigee_km":461.82477437699,"apogee_km":463.61981585603,"semimajor_km":6840.8592951165,"source":"CELESTRAK","updated_at":"2026-09-21T09:00:32.928096Z"}}